{"data":{"norad_id":66268,"epoch":"2026-09-20T11:54:28.624032Z","epoch_age_seconds":97021,"freshness":"FRESH","line1":"1 66268U 25247D   26263.49616463  .00019742  00000+0  59375-3 0  9990","line2":"2 66268  53.1591   3.4519 0001093  47.9111 312.1984 15.34407733 50901","mean_motion":15.34407733,"eccentricity":0.0001093,"inclination_deg":53.1591,"raan_deg":3.4519,"arg_perigee_deg":47.9111,"mean_anomaly_deg":312.1984,"bstar":0.00059375,"rev_number":5090,"period_min":93.847285114015,"perigee_km":461.93255487188,"apogee_km":463.42795752408,"semimajor_km":6840.817256198,"source":"CELESTRAK","updated_at":"2026-09-21T09:00:35.852811Z"}}